Regional Weather Roundup
Issued by NWS

Home | Current Version | Previous Version | Graphics & Text | Print | Product List | Glossary On
Versions: 1 2 3 4 5 6 7 8 9 10 11 12 13 14 15 16 17 18 19 20 21 22 23 24 25 26 27 28 29 30 31 32 33 34 35 36 37 38 39 40 41 42 43 44 45 46 47 48 49 50
000
ASUS45 KABQ 281701
RWRNM
WEATHER ROUNDUP FOR NEW MEXICO
NATIONAL WEATHER SERVICE ALBUQUERQUE NM
1100 AM MDT MON JUL 28 2014

NOTE: "FAIR" MEANS FEW OR NO CLOUDS BELOW 12,000 FEET AGL WITH NO
       SIGNIFICANT WEATHER OR OBSTRUCTIONS TO VISION.

      THIS PRODUCT IS RELEASED AS TWO VERSIONS.  ONE VERSION NEAR
      THE TOP OF THE HOUR CONTAINING PRELIMINARY DATA FROM ALBUQUERQUE
      AND OTHER STATIONS.  A FINAL VERSION WITH ADDITIONAL DATA IS
      ISSUED ABOUT 10 MINUTES AFTER THE HOUR.

NMZ501-503-504-510>518-281800-
NORTHWEST PLATEAU/NORTHCENTRAL MOUNTAINS

CITY           SKY/WX    TMP DP  RH WIND       PRES   REMARKS
FARMINGTON     MOSUNNY   75  55  49 VRB6      30.40S
LOS ALAMOS     SUNNY     67  54  62 S9        30.53F
SANTA FE       SUNNY     72  55  55 SE7       30.47F
TAOS           MOSUNNY   68  54  60 NW3       30.53S
ANGEL FIRE     PTSUNNY   65  52  61 CALM      30.60S

$$
NMZ402-403-502-505>509-281800-
WESTCENTRAL MOUNTAINS/SOUTHWEST MOUNTAINS

CITY           SKY/WX    TMP DP  RH WIND       PRES   REMARKS
GALLUP         CLOUDY    71  54  54 CALM      30.46R

$$
NMZ407-409-411-412-281800-
SOUTHERN DESERTS

CITY           SKY/WX    TMP DP  RH WIND       PRES   REMARKS
LORDSBURG      FAIR      79  57  47 SE7G20    30.31S
DEMING         PTSUNNY   79  59  50 E13G20    30.31R
LAS CRUCES     CLOUDY    78  59  51 N5        30.32S
HOLLOMAN AFB   CLOUDY    74  63  67 NW12      30.29F
T OR C         CLOUDY    75  59  57 E6        30.37R

$$
NMZ519>523-281800-
CENTRAL VALLEYS/CENTRAL HIGHLANDS

CITY           SKY/WX    TMP DP  RH WIND       PRES   REMARKS
ALBUQUERQUE    CLOUDY    77  54  44 S5G22     30.41S
DOUBLE EAGLE   PTSUNNY   73  55  53 SE7       30.45S
CLINES CORNERS PTSUNNY   67  56  67 E9        30.51F
BELEN          FAIR      76  56  50 S15       30.40F
SOCORRO        FAIR      77  53  43 S6        30.38F

$$
NMZ524>526-539-540-281800-
SOUTHCENTRAL MOUNTAINS

CITY           SKY/WX    TMP DP  RH WIND       PRES   REMARKS
RUIDOSO        NOT AVBL

$$
NMZ527>531-281800-
NORTHEAST HIGHLANDS/NORTHEAST PLAINS

CITY           SKY/WX    TMP DP  RH WIND       PRES   REMARKS
LAS VEGAS      PTSUNNY   68  56  65 S8        30.53S
RATON          NOT AVBL
CLAYTON        LGT RAIN  62  59  90 S16       30.43F

$$
NMZ532>537-281800-
EASTCENTRAL PLAINS

CITY           SKY/WX    TMP DP  RH WIND       PRES   REMARKS
TUCUMCARI      CLOUDY    77  59  53 SE10G17   30.37F
CANNON AFB     MOSUNNY   75  60  59 E15G21    30.38S
CLOVIS AIRPORT NOT AVBL

$$
NMZ028-029-538-281800-
SOUTHEAST PLAINS

CITY           SKY/WX    TMP DP  RH WIND       PRES   REMARKS
ROSWELL        CLOUDY    82  60  47 NE15      30.29F
ARTESIA        CLOUDY    81  57  44 N17       30.29R
CARLSBAD       CLOUDY    86  54  33 N22       30.26S
HOBBS          MOSUNNY   84  59  42 NE14G20   30.31R


$$


USA.gov is the U.S. government's official web portal to all federal, state and local government web resources and services.